This is the latest recevied weather packets stored in our database for station/object OK0BH-6. If no packets are shown the sender has not sent any weather packets the latest 10 day(s).
| Time | Temp. | Humidity | Pressure | Rain* | Wind** | Luminosity | Snow |
|---|---|---|---|---|---|---|---|
| 1777550407 | 10.56° C | 34% | 1029 hPa | - | - | - | - |
| 1777549832 | 10° C | 34% | 1028.9 hPa | - | - | - | - |
| 1777549257 | 10° C | 34% | 1029.1 hPa | - | - | - | - |
| 1777548682 | 9.44° C | 34% | 1029.3 hPa | - | - | - | - |
| 1777548107 | 9.44° C | 35% | 1029.1 hPa | - | - | - | - |
| 1777547532 | 9.44° C | 35% | 1029.2 hPa | - | - | - | - |
| 1777546958 | 8.89° C | 35% | 1029.2 hPa | - | - | - | - |
| 1777546383 | 8.89° C | 35% | 1029.4 hPa | - | - | - | - |
| 1777545808 | 8.33° C | 35% | 1029.3 hPa | - | - | - | - |
| 1777545233 | 8.33° C | 35% | 1029.4 hPa | - | - | - | - |
| 1777544658 | 8.33° C | 35% | 1029.5 hPa | - | - | - | - |
| 1777544083 | 8.33° C | 35% | 1029.7 hPa | - | - | - | - |
| 1777543508 | 8.33° C | 35% | 1029.7 hPa | - | - | - | - |
| 1777542933 | 7.78° C | 35% | 1029.7 hPa | - | - | - | - |
| 1777542359 | 7.78° C | 35% | 1029.8 hPa | - | - | - | - |
| 1777541784 | 7.78° C | 35% | 1029.7 hPa | - | - | - | - |
| 1777541209 | 7.22° C | 35% | 1029.9 hPa | - | - | - | - |
| 1777540634 | 7.22° C | 35% | 1029.8 hPa | - | - | - | - |
| 1777540059 | 7.22° C | 35% | 1029.9 hPa | - | - | - | - |
| 1777539484 | 7.22° C | 36% | 1029.9 hPa | - | - | - | - |
| 1777538909 | 6.67° C | 36% | 1030.1 hPa | - | - | - | - |
| 1777538335 | 6.11° C | 36% | 1030 hPa | - | - | - | - |
| 1777537760 | 6.11° C | 36% | 1030 hPa | - | - | - | - |
| 1777537185 | 5.56° C | 36% | 1029.9 hPa | - | - | - | - |
| 1777536610 | 5.56° C | 36% | 1030 hPa | - | - | - | - |
* Rain since midnight (hover to see other rain measurements)
** Current wind speed in m/s (hover to see current wind gust speed)